TimeMDT,TemperatureF,Dew PointF,Humidity,Sea Level PressureIn,VisibilityMPH,Wind Direction,Wind SpeedMPH,Gust SpeedMPH,PrecipitationIn,Events,Conditions,WindDirDegrees,DateUTC
12:53 AM,62.1,52.0,70,30.01,10.0,NNW,6.9,-,N/A,,Clear,330,2013-08-09 06:53:00
1:53 AM,63.0,53.1,70,30.03,10.0,Calm,Calm,-,N/A,,Overcast,0,2013-08-09 07:53:00
2:53 AM,62.1,54.0,75,30.04,10.0,SSW,10.4,-,N/A,,Scattered Clouds,200,2013-08-09 08:53:00
3:53 AM,63.0,52.0,67,30.04,10.0,South,6.9,-,N/A,,Overcast,170,2013-08-09 09:53:00
4:53 AM,63.0,53.1,70,30.06,10.0,NNE,9.2,-,N/A,,Mostly Cloudy,30,2013-08-09 10:53:00
5:26 AM,62.6,51.8,68,30.18,10.0,North,10.4,-,N/A,Thunderstorm,Overcast,10,2013-08-09 11:26:00
5:53 AM,63.0,52.0,67,30.09,10.0,ENE,6.9,-,N/A,,Overcast,60,2013-08-09 11:53:00
6:03 AM,62.6,51.8,68,30.19,10.0,NE,6.9,-,N/A,Thunderstorm,Overcast,40,2013-08-09 12:03:00
6:18 AM,62.6,51.8,68,30.20,10.0,WSW,5.8,-,N/A,,Mostly Cloudy,240,2013-08-09 12:18:00
6:53 AM,60.1,52.0,75,30.10,10.0,SSW,3.5,-,N/A,,Clear,210,2013-08-09 12:53:00
7:53 AM,64.0,54.0,70,30.07,10.0,SE,4.6,-,N/A,,Clear,130,2013-08-09 13:53:00
8:53 AM,70.0,54.0,57,30.06,10.0,SE,5.8,-,N/A,,Clear,140,2013-08-09 14:53:00
9:53 AM,73.9,55.0,52,30.06,10.0,NNE,11.5,-,N/A,,Clear,30,2013-08-09 15:53:00
10:53 AM,78.1,50.0,37,30.05,10.0,ESE,11.5,17.3,N/A,,Clear,120,2013-08-09 16:53:00
11:53 AM,77.0,51.1,40,30.06,10.0,ESE,12.7,-,N/A,,Scattered Clouds,110,2013-08-09 17:53:00
12:43 PM,73.4,51.8,47,30.16,10.0,ESE,6.9,-,N/A,Thunderstorm,Mostly Cloudy,120,2013-08-09 18:43:00
12:53 PM,73.9,50.0,43,30.08,10.0,SSE,8.1,-,N/A,Thunderstorm,Mostly Cloudy,150,2013-08-09 18:53:00
1:53 PM,64.9,57.0,75,30.13,10.0,NW,12.7,-,0.01,Rain-Thunderstorm,Light Rain,310,2013-08-09 19:53:00
2:14 PM,66.2,59.0,78,30.20,10.0,WNW,6.9,-,0.00,Rain,Light Rain,300,2013-08-09 20:14:00
2:53 PM,69.1,59.0,70,30.12,10.0,NNW,3.5,-,0.00,,Mostly Cloudy,330,2013-08-09 20:53:00
3:53 PM,70.0,59.0,68,30.10,10.0,NNE,3.5,-,0.00,,Mostly Cloudy,20,2013-08-09 21:53:00
4:53 PM,72.0,55.9,57,30.08,10.0,Calm,Calm,-,0.00,,Scattered Clouds,0,2013-08-09 22:53:00
5:53 PM,73.0,51.1,46,30.06,10.0,Calm,Calm,-,N/A,,Clear,0,2013-08-09 23:53:00
6:53 PM,72.0,51.1,48,30.07,10.0,Calm,Calm,-,N/A,,Clear,0,2013-08-10 00:53:00
7:53 PM,69.1,52.0,54,30.06,10.0,Calm,Calm,-,N/A,,Clear,0,2013-08-10 01:53:00
8:53 PM,63.0,52.0,67,30.06,10.0,Calm,Calm,-,N/A,,Clear,0,2013-08-10 02:53:00
9:53 PM,61.0,57.0,87,30.07,10.0,Calm,Calm,-,N/A,,Partly Cloudy,0,2013-08-10 03:53:00
10:53 PM,64.0,54.0,70,30.04,10.0,SE,4.6,-,N/A,,Partly Cloudy,130,2013-08-10 04:53:00
11:53 PM,59.0,54.0,83,30.05,10.0,West,4.6,-,N/A,,Clear,280,2013-08-10 05:53:00